User: anonymous   Login
Location: Unspecified
(0.0000°N, 0.0000°E)
Time: 06:09:44
(UTC+00:00)
Language:

USA 257 - Orbit

View from above orbital plane
View from above orbital plane
View from above satellite
View from above satellite

Ground track
Ground track

The orbit data is extracted from the following two-line orbital elements,

1 40208U 14055A   17193.13897314 0.00000000  00000-0  00000-0 0    09
2 40208   0.1262  37.6649 0015452 293.6429  66.1999  1.00256180    07
Epoch (UTC): 12 July 2017 03:20:07
Eccentricity: 0.0015452
inclination: 0.1262°
perigee height: 35725 km
apogee height: 35856 km
right ascension of ascending node: 37.6649°
argument of perigee: 293.6429°
revolutions per day: 1.00256180
mean anomaly at epoch: 66.1999°
orbit number at epoch: 0

The dashed part of the orbit path shows where the satellite is in the earth's shadow,  

DLR